一网星座-0051星 (ONEWEB-0051 )

导读 | 星芒AI

ONEWEB-0051 是 OneWeb 卫星通信公司发射的低轨通信卫星之一,用于构建其全球宽带互联网星座。该卫星属于 OneWeb 第一批次部署的一部分,旨在为偏远和未覆盖地区提供高速互联网服务。它运行在约 1200 公里的近地轨道,采用先进通信技术,支持多频段传输。ONEWEB-0051 的发射和入网有助于扩大 OneWeb 的全球网络覆盖,增强其在国际卫星通信市场的竞争力。

基本信息
目录编号:
45155
目录名称:
ONEWEB-0051
国际标识:
2020-008AA
轨道中心:
EARTH
卫星名称:
一网星座-0051星
卫星全名:
一网星座-0051星 (ONEWEB-0051 )
卫星状态:
在轨 (已飞行2137 天)
发射日期:
2020-02-06 UTC
国别 :
英国 (GB)
星等 :
--
轨道信息
数据来源 国际轨道数据 AOE轨道数据
星历时间 2025-12-13T06:06:59+0800
11小时前
查看轨道信息
2025-12-08T03:00:00+0800
5天前
查看轨道信息
半长轴 7595.828km 7595.809km
偏心率 0.0001752 0.0001651
轨道倾角 87.885° 87.886°
近地点辐角 103.612° 103.535°
升交点赤经 58.158° 59.180°
平近点角 256.520° 171.687°
近地点 1216.362km 1216.419km
远地点 1219.024km 1218.929km
周期 109.805分钟 109.805分钟
每日圈数 13.114148 13.114199
详细信息
平衡模式:
三轴稳定
覆盖范围:
全球
运营商:
一网卫星公司
运营商所在国:
英国
制造商(研发单位):
一网卫星公司
制造商所在国:
英国
使用方式:
暂无
卫星简介
OneWeb卫星网络由648颗重约125公斤的微型卫星组成,运行在1200公里的轨道上。 每颗卫星都能够提供至少每秒8千兆位的吞吐量,以使用其高吞吐量的Ku频段有效载荷为家庭和移动平台提供互联网接入。该卫星仍在工作。
2D轨道图
3D轨道图
轨道高度分析图
轨道倾角分析图
轨道综合分析图
查看轨道综合分析图